CW8081 Weather Reports


time (UTC)temp
F
wind
direction
speed
knots
gust
knots
rain 1hr
in
rain 24hr
in
rain mn
in
humidity
%
barometer
mb
20260906011105 72 0 0.0 0.0 0.00 0.00 0.00 61 1014.9
20260906004605 73 0 0.0 0.0 0.00 0.00 0.00 61 1014.9
20260906003605 73 0 0.0 0.0 0.00 0.00 0.00 60 1014.9
20260906003105 73 0 0.0 0.0 0.00 0.00 0.00 60 1014.9
20260906000106 74 0 0.0 0.0 0.00 0.00 0.00 59 1014.9
20260905234605 73 0 0.0 0.0 0.00 0.00 0.00 59 1015.3
20260905233605 73 0 0.0 0.0 0.00 0.00 0.00 60 1015.3
20260905231104 73 0 0.0 0.0 0.00 0.00 0.00 60 1015.3
20260905230106 73 0 0.0 0.0 0.00 0.00 0.00 60 1015.3
20260905224605 74 0 0.0 0.0 0.00 0.00 0.00 60 1015.3
20260905223606 74 0 0.0 0.0 0.00 0.00 0.00 59 1015.3
20260905223105 74 0 0.0 0.0 0.00 0.00 0.00 59 1015.3
20260905221105 75 0 0.0 0.0 0.00 0.00 0.00 57 1015.3
20260905213105 76 0 0.0 0.0 0.00 0.00 0.00 56 1015.4
20260905211112 76 0 0.0 0.0 0.00 0.00 0.00 55 1015.5
20260905210105 77 0 0.0 0.0 0.00 0.00 0.00 56 1015.7
20260905204105 78 0 0.0 0.0 0.00 0.00 0.00 54 1015.7
20260905203105 78 0 0.0 0.0 0.00 0.00 0.00 53 1015.6
20260905201605 78 0 0.0 0.0 0.00 0.00 0.00 53 1015.6
20260905201104 79 0 0.0 0.0 0.00 0.00 0.00 52 1015.6
20260905200605 79 0 0.0 0.0 0.00 0.00 0.00 52 1015.6
20260905194605 79 0 0.0 0.0 0.00 0.00 0.00 53 1015.6
20260905194104 79 0 0.0 0.0 0.00 0.00 0.00 53 1015.6
20260905190105 81 0 0.0 0.0 0.00 0.00 0.00 51 1015.6
20260905184105 82 0 0.0 0.0 0.00 0.00 0.00 49 1015.4
20260905183605 82 0 0.0 0.0 0.00 0.00 0.00 49 1015.4
20260905180604 83 0 0.0 0.0 0.00 0.00 0.00 47 1015.0
20260905174105 84 0 0.0 0.0 0.00 0.00 0.00 47 1015.0
20260905173605 84 0 0.0 0.0 0.00 0.00 0.00 46 1014.6
20260905171105 86 0 0.0 0.0 0.00 0.00 0.00 47 1014.6
20260905170605 86 0 0.0 0.0 0.00 0.00 0.00 47 1014.6
20260905170106 86 0 0.0 0.0 0.00 0.00 0.00 47 1014.6
20260905164605 87 0 0.0 0.0 0.00 0.00 0.00 45 1014.6
20260905164105 87 0 0.0 0.0 0.00 0.00 0.00 44 1014.6
20260905163605 87 0 0.0 0.0 0.00 0.00 0.00 43 1014.6
20260905163105 88 0 0.0 0.0 0.00 0.00 0.00 44 1014.6
20260905160605 89 0 0.0 0.0 0.00 0.00 0.00 47 1014.6
20260905160106 89 0 0.0 0.0 0.00 0.00 0.00 45 1014.6
20260905153105 89 0 0.0 0.0 0.00 0.00 0.00 51 1014.6
20260905151605 89 359 0.0 0.0 0.00 0.00 0.00 50 1014.5
20260905150605 89 0 0.0 0.0 0.00 0.00 0.00 49 1014.5
20260905144105 90 348 0.0 0.0 0.00 0.00 0.00 49 1014.5
20260905141605 90 0 0.0 0.0 0.00 0.00 0.00 51 1015.2
20260905134605 90 342 0.0 0.0 0.00 0.00 0.00 46 1015.2
20260905134105 90 0 0.0 0.0 0.00 0.00 0.00 44 1015.2
20260905133605 90 0 0.0 0.0 0.00 0.00 0.00 42 1015.2
20260905133104 91 352 0.0 0.0 0.00 0.00 0.00 44 1015.2
20260905130604 91 0 0.0 0.0 0.00 0.00 0.00 41 1015.4
20260905130106 91 356 0.0 0.0 0.00 0.00 0.00 42 1015.4
20260905124105 90 355 0.0 0.0 0.00 0.00 0.00 43 1015.7
20260905123605 91 344 0.0 0.0 0.00 0.00 0.00 43 1015.7
20260905123105 91 330 0.0 0.0 0.00 0.00 0.00 40 1015.7
20260905120106 89 0 0.0 0.0 0.00 0.00 0.00 44 1016.3
20260905114605 89 311 0.0 0.0 0.00 0.00 0.00 45 1016.3
20260905110605 89 358 0.0 0.0 0.00 0.00 0.00 46 1016.5
20260905104605 89 337 0.0 0.0 0.00 0.00 0.00 44 1016.7
20260905104104 89 311 0.0 0.0 0.00 0.00 0.00 44 1016.7
20260905103604 89 0 0.0 0.0 0.00 0.00 0.00 45 1016.7
20260905101604 88 339 0.0 0.0 0.00 0.00 0.00 47 1017.1
20260905101105 88 356 0.0 0.0 0.00 0.00 0.00 51 1017.1
20260905100106 88 303 0.0 0.0 0.00 0.30 0.00 48 1017.1
20260905091104 86 276 0.0 0.0 0.00 0.39 0.00 54 1017.5
20260905090605 86 266 0.0 0.0 0.00 0.40 0.00 54 1017.5
20260905083105 85 312 0.0 0.0 0.00 0.40 0.00 59 1017.7
20260905074605 81 310 0.0 0.0 0.00 2.02 0.00 64 1017.6
20260905073604 80 311 0.0 0.0 0.00 2.02 0.00 64 1017.6
20260905073105 80 310 0.0 0.0 0.00 2.02 0.00 66 1017.6
20260905071605 79 305 0.0 0.0 0.00 2.02 0.00 67 1017.6
20260905071105 79 305 0.0 0.0 0.00 2.02 0.00 68 1017.6
20260905064104 79 310 0.0 0.0 0.00 2.02 0.00 72 1017.6
20260905063604 79 311 0.0 0.0 0.00 2.02 0.00 72 1017.6
20260905061605 77 315 0.0 0.0 0.00 2.02 0.00 68 1017.6
20260905061105 76 315 0.0 0.0 0.00 2.02 0.00 68 1017.6
20260905060605 75 316 0.0 0.0 0.00 2.02 0.00 69 1017.5
20260905060106 75 316 0.0 0.0 0.00 2.02 0.00 70 1017.5
20260905054105 73 315 0.0 0.0 0.00 2.09 0.00 72 1017.5
20260905053105 72 315 0.0 0.0 0.00 2.09 0.00 73 1017.5
20260905051104 71 316 0.0 0.0 0.00 2.39 0.00 74 1017.4
20260905050604 71 315 0.0 0.0 0.00 3.24 0.00 73 1017.4
20260905050105 71 315 0.0 0.0 0.00 4.19 0.00 73 1017.4
20260905044605 71 315 0.0 0.0 0.00 6.98 0.00 73 1017.1
20260905043105 71 315 0.0 0.0 0.00 9.40 0.00 74 1017.1
20260905041105 71 316 0.0 0.0 0.00 9.40 0.00 75 1016.9
20260905034605 71 316 0.0 0.0 0.00 1.28 0.00 75 1016.8
20260905034104 71 316 0.0 0.0 0.00 1.37 0.00 75 1016.8
20260905031604 71 315 0.0 0.0 0.00 1.52 0.00 75 1016.5
20260905024105 72 315 0.0 0.0 0.00 1.64 0.00 72 1016.4
20260905021605 72 316 0.0 0.0 0.00 1.64 0.00 71 1016.4
20260905014104 73 315 0.0 0.0 0.00 1.64 0.00 69 1016.1